UpdateThe Minotaur rocket body re-entered the Earths atmosphere on the 2nd April, 2011 @ 14:56 GMT ± 1 hours.
Inclination: 40.00° Revolution Number: 24521 Predicted Location: 39°S, 227.1°E
UpdateThe Minotaur rocket body is predicted to re-enter the Earths atmosphere on the 2nd April, 2011 @ 14:56 GMT ± 6 hours.
MINOTAUR RB1 29654U 06058B 11092.21171033 .08921208 68274-5 70954-3 0 38992 29654 039.9967 029.2818 0005979 249.1097 111.0285 16.38948346245161
Period: 87.86 minutes Inclination: 40.00° Apogee: 173 km Perigee: 165 km Revolution Number: 24521 Predicted Location: 39°S, 227.1°E
UpdateThe Minotaur rocket body is predicted to re-enter the Earths atmosphere on the 2nd April, 2011 @ 16:29 GMT ± 16 hours.
MINOTAUR RB1 29654U 06058B 11091.23340324 .02961704 66680-5 69108-3 0 38432 29654 039.9994 036.0482 0007740 239.2096 121.4396 16.28675672245000
Period: 88.69 minutes Inclination: 40.00° Apogee: 215 km Perigee: 204 km Revolution Number: 24522 Predicted Location: 39.1°S, 234.2°E
UpdateThe Minotaur rocket body is predicted to re-enter the Earths atmosphere on the 2nd April, 2011 @ 19:22 GMT ± 24 hours.
MINOTAUR RB1 29654U 06058B 11090.98804243 .02011568 66638-5 55635-3 0 38352 29654 040.0060 037.7376 0007210 255.0232 105.4543 16.26827091244969
Period: 88.89 minutes Inclination: 40.00° Apogee: 225 km Perigee: 214 km Revolution Number: 24524 Predicted Location: 40.1°S, 174.6°E
UpdateThe Minotaur rocket body is predicted to re-enter the Earths atmosphere on the 2nd April, 2011 @ 21:04 GMT ± 48 hours.
MINOTAUR RB1 29654U 06058B 11090.18926994 .01637584 66002-5 60918-3 0 37852 29654 040.0000 043.1983 0007312 213.7160 146.4149 16.23391538244834
Period: 88.89 minutes Inclination: 40.00° Apogee: 225 km Perigee: 214 km Revolution Number: 24525 Predicted Location: 20.5°S, 212.4°E
UpdateThe Minotaur rocket body is predicted to re-enter the Earths atmosphere on the 2nd April, 2011 @ 17:21 GMT ± 72 hours.
MINOTAUR RB1 29654U 06058B 11088.27894949 .01178413 10135-2 69367-3 0 37212 29654 040.0001 056.1738 0009476 208.3069 151.7424 16.17802985244525
Period: 89.01 minutes Inclination: 40.00° Apogee: 232 km Perigee: 220 km Revolution Number: 24523 Predicted Location: 23.7°N, 84.1°E
UpdateThe Minotaur rocket body is predicted to re-enter the Earths atmosphere on the 5th April, 2011 @ --:-- GMT ±-- hours.
MINOTAUR RB1 29654U 06058B 11088.27894983 .01099372 85529-3 64801-3 0 37122 29654 040.0017 056.1740 0009152 212.0466 147.9832 16.17754245244524
Period: 89.01 minutes Inclination: 40.00° Apogee: 232 km Perigee: 220 km Revolution Number: - Predicted Location: -
MINOTAUR RB1 29654U 06058B 11069.44460886 .00320884 47872-4 64772-3 0 32512 29654 040.0050 181.5333 0008202 052.7418 307.4147 15.98670854241499